www.pogodaiklimat.ru

Погода и климат >> Архив погоды >> Россия >> Ростовская область >> Семикаракорск


ПОГОДА в Семикаракорске

  • Прогноз погоды в Семикаракорске
  • Монитор погоды в Семикаракорске

АРХИВ ПОГОДЫ в Семикаракорске

Время (UTC), дата Ветер
(напр.,м/с)
 
Видим.   Явления Облачность Т
(С)
Тd
(С)
f
(%)
Тe
(С)
Тes
(С)
Комфортность P
(гПа)
Po
(гПа)
Тmin
(С)
Tmax
(С)
R
(мм)
R24
(мм)
S
(см)
00 17.01 Ю 1 1000 м дымка ясно -8.0 -8.6 95 -10 -10 1014.0 1012.3
03 17.01 штиль 0 500 м переохл. туман [диам. изморози 2 мм] ясно -9.5 -10.5 92 -10 -10 1015.9 1014.2 -9.5 9
06 17.01 С 1 4000 м дымка {туман} [диам. изморози 2 мм] 10/0
[]
-12.5 -13.8 90 -15 -14 1018.4 1016.6 -12.9
09 17.01 Ю 1 4000 м дымка [диам. изморози 2 мм] 6/0
[Ac As]
-6.6 -7.6 93 -9 -7 1019.6 1017.9
12 17.01 Ю 1 1000 м дымка 10/0
[As trans]
-6.2 -6.9 95 -9 -8 1019.8 1018.1
15 17.01 Ю 1 200 м переохл. туман ?/? -6.1 -6.6 96 -9 -9 1021.6 1019.9 -3.8
18 17.01 Ю 1 200 м переохл. туман ?/? -5.2 -5.7 96 -8 -8 1022.3 1020.6
21 17.01 штиль 0 1000 м дымка {туман} 10/0
[Ac As]
-5.8 -6.3 96 -7 -7 1022.6 1020.9
00 18.01 ЮВ 1 1000 м дымка {туман} 10/0
[Ac und]
-7.4 -8.2 94 -10 -10 1022.3 1020.6
03 18.01 штиль 0 1000 м дымка ясно -10.0 -11.0 92 -10 -10 1021.6 1019.8 -10.0 9
06 18.01 С 1 4000 м дымка 5/0
[Ac cast Ci]
-9.7 -10.8 92 -12 -11 1021.9 1020.2 -10.9
09 18.01 ЮЗ 1 4000 м дымка [диам. изморози 13 мм] 3/0
[Ac cast Ci fib]
-2.1 -2.4 98 -5 -1 1021.4 1019.7
12 18.01 ЮВ 1 4000 м дымка 8/0
[Ac cast]
+0.2 -0.8 93 -2 -1 1020.2 1018.5
15 18.01 Ю 2 4000 м дымка 9/9 1000 м
[Sc]
+0.8 -0.3 92 -3 -3 1020.2 1018.5 +1.1
18 18.01 Ю 2 4000 м дымка 10/10 1000 м
[Sc]
+1.4 +0.4 93 -2 -2 1019.6 1017.9
21 18.01 Ю 2 10 км 10/10 1000 м
[Sc]
+2.2 -0.2 84 -1 -1 1019.4 1017.8
00 19.01 Ю 3 4000 м дымка 10/10 1000 м
[Sc]
+2.1 +0.1 87 -2 -2 1018.2 1016.6
03 19.01 Ю 3 4000 м дымка 10/10 1000 м
[Sc]
+1.7 +0.2 90 -3 -3 1017.3 1015.7 +0.4 6
06 19.01 Ю 3 4000 м дымка 10/10 1000 м
[Sc]
+2.3 +0.2 86 -2 -2 1017.5 1015.8
09 19.01 Ю 3 10 км 10/10 1000 м
[Sc]
+2.9 +0.3 83 -1 -1 1017.2 1015.6
12 19.01 Ю 3 10 км 10/10 1000 м
[Sc]
+3.5 +0.7 82 -0 -0 1016.2 1014.6
15 19.01 ЮЗ 2 4000 м дымка 10/10 600 м
[St]
+3.0 +1.5 90 -0 -0 1016.9 1015.3 +3.5
18 19.01 СЗ 3 4000 м в посл. час морось 10/10 600 м
[St]
+2.1 +1.0 92 -2 -2 1018.4 1016.7
21 19.01 С 4 4000 м дымка 10/10 600 м
[St]
+1.3 -0.7 87 -4 -4 1020.6 1019.0
00 20.01 С 6
{10}
10 км 1/1 600 м
[Sc]
-2.4 -5.8 77 -9 -9 1023.3 1021.6
03 20.01 СЗ 3 10 км ясно -6.0 -9.3 77 -11 -11 1025.3 1023.6 -6.0 6
06 20.01 С 3 10 км 4/0
[Cc]
-7.0 -10.0 79 -13 -12 1027.0 1025.3 -7.7
09 20.01 штиль 0 10 км 8/0
[Cc]
+0.2 -9.2 49 -0 +4 1027.3 1025.6
12 20.01 В 1 10 км 8/0
[Cc]
-0.3 -8.3 55 -2 -0 1026.3 1024.6
15 20.01 СВ 1 10 км 8/0
[Cc]
-3.8 -8.1 72 -6 -6 1025.9 1024.2 +2.2
18 20.01 СВ 1 4000 м дымка 10/0
[Cc]
-5.5 -7.3 87 -8 -8 1025.4 1023.7
21 20.01 В 1 4000 м дымка ясно -3.8 -5.5 88 -6 -6 1024.1 1022.5
00 21.01 штиль 0 4000 м дымка 10/0
[Ac cast]
-3.3 -4.3 93 -5 -5 1022.3 1020.6
03 21.01 ЮВ 2 4000 м дымка 10/0
[Ac und]
-0.7 -1.5 94 -5 -5 1019.8 1018.2 -6.1 6
06 21.01 Ю 4 4000 м дымка 10/0
[Ac und]
+0.5 -0.1 96 -5 -5 1017.5 1015.9
09 21.01 Ю 3 4000 м дымка 10/0
[Ac und]
+1.9 +0.4 90 -2 -2 1015.7 1014.0
12 21.01 Ю 3 10 км 10/0
[Ac As]
+6.6 +2.2 73 +4 +4 1012.6 1011.0
15 21.01 ЮВ 1 4000 м слаб. дождь 10/10 1000 м
[Sc]
+3.6 +2.5 93 +2 +2 1011.8 1010.2 +6.6 0.3
18 21.01 С 4 4000 м слаб. дождь 10/10 1000 м
[Sc]
+0.8 +0.1 95 -5 -5 1013.0 1011.3
21 21.01 С 5
{12}
4000 м слаб. снег {дождь} 10/10 1000 м
[Sc]
-1.0 -3.3 84 -7 -7 1015.3 1013.6
00 22.01 С 6
{11}
10 км {снег, дождь} 10/3 1000 м
[Sc Ac As]
-3.7 -6.2 83 -11 -11 1017.7 1016.1
03 22.01 С 7-10
{10}
10 км 8/4 1000 м
[Sc Ac As]
-6.4 -9.0 82 -15 -15 1020.0 1018.3 -6.4 7 5
06 22.01 С 3
{10}
4000 м дымка 10/10 1000 м
[Sc]
-7.6 -9.6 86 -13 -13 1022.2 1020.5 -7.7
09 22.01 С 2 10 км 6/6 1000 м
[Sc]
-6.1 -9.4 77 -10 -9 1023.8 1022.1
12 22.01 С 1 10 км 4/0
[Ac cast]
-4.9 -8.8 74 -7 -6 1023.7 1022.0
15 22.01 С 2 4000 м дымка ясно -8.1 -9.6 89 -13 -13 1024.8 1023.1 -4.4
18 22.01 С 2 4000 м дымка ясно -10.0 -10.9 93 -15 -15 1025.3 1023.6
21 22.01 С 1 4000 м дымка ясно -12.1 -13.0 93 -14 -14 1025.9 1024.1
00 23.01 С 1 4000 м дымка ясно -12.3 -13.5 91 -15 -15 1025.6 1023.8
03 23.01 СВ 2 4000 м дымка [диам. изморози 1 мм] ясно -11.9 -13.2 90 -16 -16 1024.6 1022.9 -13.1 4
06 23.01 СВ 2 4000 м дымка [диам. гололёда 1 мм] 10/0
[Ac As]
-8.1 -9.0 93 -13 -12 1024.6 1022.9
09 23.01 В 3 4000 м дымка [диам. гололёда 1 мм] 10/0
[Ac und]
-5.4 -7.1 88 -11 -10 1023.8 1022.1
12 23.01 В 3 10 км 10/0
[As trans]
-3.6 -7.3 75 -9 -8 1022.3 1020.6
15 23.01 В 3 10 км 10/0
[As trans]
-3.1 -7.4 72 -8 -8 1021.0 1019.3 -3.1
18 23.01 В 4 10 км 10/10 1000 м
[Sc]
-2.5 -7.3 70 -8 -8 1019.6 1017.9

 

Местоположение метеостанции Семикаракорск (Ростовская область, Россия): широта 47.52 долгота 40.83 высота над уровнем моря 12 м.

В архиве по умолчанию представлена погода в Семикаракорске за последнюю неделю. Архивные данные за месяц целиком и за предыдущие месяцы, начиная с января 2011 года, Вы можете получить, выбрав интересующий диапазон дат из раскрывающегося списка и нажав кнопку "Ввод!".


*Определитесь, кто Вы:
робот инопланетянин человек

Внимание! Время в таблицах - всемирное. Для получения местного времени необходимо прибавить поправку, которая равна 3 ч.

Смотрите также архив погоды в соседних городах и на ближайших метеорологических станциях:

Погода в Константиновске (Ростовская область, Россия) (21 км)
Погода в Шахтах (Ростовская область, Россия) (47 км)
Погода в Аэропорту Платов (Ростовская область, Россия) (68 км)
Погода в Белой Калитве (Ростовская область, Россия) (79 км)
Погода в Ростове-на-Дону (Ростовская область, Россия) (81 км)
Погода в Зерноград (Ростовская область, Россия) (84 км)
Погода в Каменск-Шахтинском (Ростовская область, Россия) (95 км)
Погода в Цимлянске (Ростовская область, Россия) (98 км)
Погода в Гиганте (Ростовская область, Россия) (118 км)
Погода в Морозовске (Ростовская область, Россия) (121 км)

Пояснения к столбцам:

Ветер - указаны скорость ветра в м/с - средняя за 10 мин, порывы в срок и между сроками (в фигурных скобках) и направление, откуда дует ветер: С - северный, СВ - северо-восточный, В - восточный, ЮВ - юго-восточный, Ю - южный, ЮЗ - юго-западный, З - западный, СЗ - северо-западный.
Видимость - горизонтальная дальность видимости в метрах или километрах. При видимости от 1 до 10 км при отсутствии осадков обычно наблюдается дымка, при ухудшении видимости до 1 км и менее - туман. В сухую погоду видимость может ухудшаться дымом, пылью или мглою.
Явления - указаны атмосферные явления, наблюдавшиеся в срок или в последний час перед сроком; фигурными скобками обозначены явления, наблюдавшиеся между сроками (за 1-3 часа до срока); квадратными скобками обозначены град или гололедные отложения с указанием их диаметра в мм.
Облачность - указаны через наклонную черту общая и нижняя облачность в баллах и высота нижней границы облаков в метрах; квадратными скобками обозначены формы облаков: Ci - перистые, Cs - перисто-слоистые, Cc - перисто-кучевые, Ac - высококучевые, As - высокослоистые, Sc - слоисто-кучевые, Ns - слоисто-дождевые, Cu - кучевые, Cb - кучево-дождевые. Подробнее классификацию облаков см. в Атласе облаков (PDF).
T - Температура воздуха - температура, измеренная на высоте 2 м над землей.
Td - Температура точки росы - температура, при понижении до которой содержащийся в воздухе водяной пар достигнет насыщения.
f - Относительная влажность воздуха - влажноcть воздуха, измеренная на высоте 2 м над землей.
Te - Эффективная температура - температура, которую ощущает одетый по сезону человек в тени. Характеристика душности погоды. При расчете учитывается влияние влажности воздуха и скорости ветра на теплоощущения человека.
Tes - Эффективная температура на солнце - температура, которую ощущает человек, с поправкой на солнечный нагрев. Характеристика знойности погоды. Зависит от высоты солнца над горизонтом, облачности и скорости ветра. Ночью, в пасмурную погоду, а также при ветре 12 м/с и более поправка равна нулю.
P - Атмосферное давление - приведенное к уровню моря атмосферное давление.
Po - Атмосферное давление - измеренное на уровне метеостанции атмосферное давление.
Tmin - Минимальная температура - минимум температуры воздуха на высоте 2 м над землей.
Tmax - Максимальная температура - максимум температуры воздуха на высоте 2 м над землей.
R - Количество осадков - Количество выпавших осадков за период времени, мм. При наведении курсора мыши на число - период времени, за который выпало указанное количество осадков.
R24 - Количество осадков - Количество выпавших осадков за 24 часа, мм.
S - Снежный покров - Высота снежного покрова, см. При наведении курсора мыши на число - состояние снежного покрова и степень покрытия местности в баллах.